Clinton-Sherman, OK

12:00 PM CDT on May 21, 2018 (GMT -0500)
Clinton-Sherman

Weather History for KCSM - April, 2013

Change the Weather History Date:

Friday, April 19, 2013

  Actual Average Record
Temperature  
Mean Temperature 47 °F -  
Max Temperature 66 °F 70 °F 87 °F (2002)
Min Temperature 30 °F 46 °F 30 °F (2013)
Degree Days  
Heating Degree Days 18    
Moisture  
Dew Point 25 °F    
Average Humidity 47    
Maximum Humidity 79    
Minimum Humidity 22    
Precipitation  
Precipitation 0.00 in - - ()
Sea Level Pressure  
Sea Level Pressure 30.16 in    
Wind  
Wind Speed 10 mph (West)    
Max Wind Speed 15 mph    
Max Gust Speed 23 mph    
Visibility 10 miles    
Events      
Averages and records for this station are not official NWS values.
T = Trace of Precipitation, MM = Missing Value Source: NWS Daily Summary

Daily Weather History Graph

Daily Weather History Graph

Search for Another Location

Airport or City:

Astronomy

Apr. 19, 2013 Rise Set
Actual Time 6:58 AM CDT 8:13 PM CDT
Civil Twilight 6:32 AM CDT 8:39 PM CDT
Nautical Twilight 6:01 AM CDT 9:11 PM CDT
Astronomical Twilight 5:28 AM CDT 9:44 PM CDT
Moon 2:12 PM CDT (4/19) 3:01 AM CDT (4/19)
Length of Visible Light 14h 07m
Length of Day
13h 14m
First Quarter, 62% of the Moon is Illuminated
Apr 19
First Quarter
Apr 25
Full
May 2
Last Quarter
May 9
New
May 17
First Quarter

Hourly Weather History & Observations

Time (CDT) Temp. Windchill Dew Point Humidity Pressure Visibility Wind Dir Wind Speed Gust Speed Precip Events Conditions
12:53 AM 30.9 °F 22.8 °F 25.0 °F 79% 30.21 in 10.0 mi West 9.2 mph - N/A   Clear
1:53 AM 30.9 °F 22.8 °F 24.1 °F 76% 30.21 in 10.0 mi West 9.2 mph - N/A   Clear
2:53 AM 32.0 °F 22.1 °F 23.0 °F 69% 30.20 in 10.0 mi NW 13.8 mph - N/A   Clear
3:53 AM 32.0 °F 21.6 °F 21.9 °F 66% 30.19 in 10.0 mi NNW 15.0 mph - N/A   Clear
4:53 AM 32.0 °F 22.5 °F 21.0 °F 64% 30.19 in 10.0 mi NNW 12.7 mph - N/A   Clear
5:53 AM 30.9 °F 23.5 °F 19.9 °F 64% 30.21 in 10.0 mi NW 8.1 mph - N/A   Clear
6:53 AM 32.0 °F 22.5 °F 19.0 °F 59% 30.22 in 10.0 mi NW 12.7 mph - N/A   Clear
7:53 AM 34.0 °F 27.2 °F 19.9 °F 56% 30.25 in 10.0 mi WNW 8.1 mph - N/A   Clear
8:53 AM 39.9 °F 32.9 °F 19.9 °F 45% 30.26 in 10.0 mi WNW 11.5 mph - N/A   Clear
9:53 AM 46.0 °F 41.0 °F 21.9 °F 39% 30.25 in 10.0 mi WNW 10.4 mph - N/A   Clear
10:53 AM 50.0 °F - 23.0 °F 35% 30.25 in 10.0 mi WNW 9.2 mph - N/A   Clear
11:53 AM 53.1 °F - 25.0 °F 34% 30.23 in 10.0 mi West 13.8 mph 19.6 mph N/A   Clear
12:53 PM 57.9 °F - 26.1 °F 30% 30.20 in 10.0 mi West 11.5 mph 23.0 mph N/A   Clear
1:53 PM 61.0 °F - 23.0 °F 23% 30.16 in 10.0 mi West 10.4 mph 18.4 mph N/A   Clear
2:53 PM 63.0 °F - 24.1 °F 23% 30.14 in 10.0 mi NW 11.5 mph - N/A   Clear
3:53 PM 64.0 °F - 24.1 °F 22% 30.11 in 10.0 mi West 12.7 mph 20.7 mph N/A   Clear
4:53 PM 64.0 °F - 25.0 °F 23% 30.09 in 10.0 mi Variable 3.5 mph 16.1 mph N/A   Clear
5:53 PM 64.9 °F - 26.1 °F 23% 30.07 in 10.0 mi West 8.1 mph - N/A   Clear
6:53 PM 63.0 °F - 23.0 °F 22% 30.07 in 10.0 mi SW 4.6 mph - N/A   Clear
7:53 PM 54.0 °F - 35.1 °F 49% 30.07 in 10.0 mi South 4.6 mph - N/A   Clear
8:53 PM 48.9 °F - 30.9 °F 50% 30.07 in 10.0 mi South 6.9 mph - N/A   Clear
9:53 PM 46.0 °F 41.4 °F 30.0 °F 54% 30.09 in 10.0 mi South 9.2 mph - N/A   Clear
10:53 PM 44.1 °F 39.0 °F 30.9 °F 60% 30.07 in 10.0 mi South 9.2 mph - N/A   Clear
11:53 PM 48.0 °F - 30.9 °F 52% 30.06 in 10.0 mi South 13.8 mph - N/A   Clear